Flag for Sweden Weather past 2 weeks in Kiruna, Sweden

Now
50 °F

Scattered clouds.


Feels Like: 42 °F
Forecast: 38 / 50 °F
Wind: 28 mph from Southwest

Location: Kiruna Airport

Current Time: Jun 2, 2015 at 5:39:26 PM

Latest Report: Jun 2, 2015 at 5:20 PM


Visibility: N/A

Pressure: 29.42 "Hg

Humidity: 54%

Dew point: 34 °F

Location of KirunaLocation

Historic Weather in Kiruna — Graph

°F

Kiruna temperature yesterday

Maximum temperature yesterday: 50 °F (at 4:50 PM)
Minimum temperature yesterday: 39 °F (at 3:50 AM)
Average temperature yesterday: 45 °F

Past Weeks' High & Low Weather Summary

 TemperatureHumidityPressure
High59 °F (May 31, 1:50 PM)100% (May 19, 9:20 AM)29.83 "Hg (May 19, 9:20 AM)
Low30 °F (May 20, 2:50 AM)36% (May 29, 2:50 PM)29.18 "Hg (Jun 2, 3:50 AM)
Average42 °F74%29.61 "Hg
* Reported May 18 4:20 PM — Jun 2 4:20 PM, Kiruna, Weather by CustomWeather, © 2015

Note: Actual official high and low records may vary slightly from our data, if they occured in-between our weather recording intervals... More about our weather records

Advertising

Kiruna weather history for previous 24 hours

 ConditionsComfort  
Time TempWeatherWind HumidityBarometerVisibility
4:20 PM
Tue, Jun 2
52 °FScattered clouds.23 mph47%29.42 "HgN/A
3:50 PM52 °FScattered clouds.25 mph50%29.39 "HgN/A
3:20 PM48 °FScattered clouds.28 mph54%29.39 "HgN/A
2:50 PM48 °FPassing clouds.29 mph54%29.39 "HgN/A
2:20 PM48 °FScattered clouds.25 mph58%29.39 "HgN/A
1:50 PM46 °FSunny.24 mph62%29.36 "Hg10 mi
1:20 PM46 °FSunny.24 mph62%29.36 "Hg10 mi
12:50 PM46 °FSunny.28 mph62%29.33 "Hg10 mi
12:20 PM46 °FScattered clouds.25 mph66%29.33 "HgN/A
11:50 AM46 °FBroken clouds.24 mph66%29.30 "HgN/A
11:20 AM45 °FPassing clouds.24 mph71%29.30 "HgN/A
10:50 AM46 °FScattered clouds.23 mph71%29.27 "HgN/A
10:20 AM46 °FPartly sunny.24 mph71%29.27 "HgN/A
9:50 AM46 °FPartly sunny.21 mph71%29.24 "HgN/A
9:20 AM45 °FBroken clouds.18 mph76%29.24 "HgN/A
8:50 AM43 °FPartly sunny.21 mph81%29.24 "HgN/A
8:20 AM43 °FOvercast.17 mph87%29.24 "HgN/A
7:50 AM43 °FMostly cloudy.20 mph87%29.21 "HgN/A
7:20 AM43 °FOvercast.22 mph81%29.21 "HgN/A
6:50 AM43 °FMostly cloudy.16 mph81%29.18 "HgN/A
6:20 AM43 °FOvercast.16 mph81%29.21 "HgN/A
5:20 AM43 °FOvercast.15 mph87%29.18 "HgN/A
4:50 AM43 °FOvercast.12 mph87%29.21 "HgN/A
4:20 AM43 °FMore clouds than sun.15 mph87%29.18 "HgN/A
3:50 AM43 °FMostly cloudy.14 mph93%29.18 "HgN/A
3:20 AM43 °FLight rain. Partly sunny.12 mph93%29.21 "HgN/A
2:50 AM43 °FMostly cloudy.10 mph93%29.21 "HgN/A
2:20 AM43 °FBroken clouds.10 mph93%29.21 "HgN/A
1:50 AM43 °FLight rain. Partly sunny.10 mph93%29.21 "HgN/A
1:20 AM43 °FLight rain. Cloudy.9 mph93%29.21 "Hg4 mi
12:50 AM43 °FLight rain. Broken clouds.12 mph93%29.21 "HgN/A
12:20 AM43 °FLight rain. Broken clouds.12 mph93%29.21 "HgN/A
11:50 PM
Mon, Jun 1
45 °FBroken clouds.13 mph87%29.21 "HgN/A
11:20 PM45 °FLight rain. Partly sunny.13 mph93%29.21 "HgN/A
10:50 PM45 °FDrizzle. Mostly cloudy.12 mph93%29.24 "Hg6 mi
10:20 PM45 °FDrizzle. Cloudy.10 mph93%29.24 "Hg4 mi
9:50 PM45 °FRain. Mostly cloudy.12 mph93%29.24 "Hg3 mi
9:20 PM45 °FRain. Low clouds.13 mph93%29.27 "Hg4 mi
8:50 PM45 °FRain. Mostly cloudy.13 mph93%29.27 "Hg4 mi
8:20 PM45 °FRain. Mostly cloudy.12 mph93%29.30 "Hg6 mi
7:50 PM45 °FRain. Cloudy.10 mph87%29.33 "HgN/A
7:20 PM45 °FRain. Mostly cloudy.13 mph93%29.36 "HgN/A
6:50 PM46 °FLight rain. Broken clouds.10 mph82%29.36 "HgN/A
6:20 PM48 °FBroken clouds.10 mph71%29.39 "HgN/A
5:50 PM48 °FBroken clouds.8 mph71%29.39 "HgN/A
5:20 PM48 °FPartly sunny.10 mph71%29.42 "HgN/A
Weather by CustomWeather, © 2015

See weather overviewHow to use our weather pages